(304) Olga
ephemeris date magn radius delta ra dec elong phase
Opposition15 May 202613.32.337 AU1.389 AU15h57m+06°42'153.4°11.2°
Today18 Jun 202613.52.252 AU1.419 AU15h29m+07°33'134.7°18.7°
(304) Olga - 2026-06-18
astro.vanbuitenen.nl


 
-1 year
-1 month
-1 day
Now
+1 day
+1 month
+1 year

The interactive orbit chart above shows the body's path through the solar system and its position at the given date. Green and blue lines are shown perpendicular to the ecliptic plane: Green if the path is above the ecliptic plane, blue if it is below. (Left-click and drag to rotate the view; Right-click and drag to move the view; Use scroll wheel to zoom in our out.)

The orbital elements of Olga are:

            e (Eccentricity)                : 0.2224958
            a (Semimajor axis)              : 2.4026830
            i (Inclination)                 : 15.84851
            Ω (Longitude of ascending node) : 158.95499
            ω (Argument of perihelion)      : 172.35162
            M (Mean anomaly)                : 296.20896
            Epoch                           : 2026 Jun 09

            L (Longitude of perihelion)     : 151.59410
            B (Latitude of perihelion)      : 2.08299
            P (Orbital period in years)     : 3.72            
        

The light curve chart below shows the estimated development of the minor planet's magnitude.


The all-sky chart below shows the path of the minor planet over the same period as the light curve. The current position is marked yellow.





The following chart shows the path of the minor planet in the next few days. The field of view is optimized for (~10x50) binoculars and finderscopes.




Ephemerides:
Date       Time       RA (2000)    DEC (2000)    delta   radius  elong  phase   PA    magn
2026-06-18 00:00 UT   15 29 02.9   +07 33 15     1.419    2.252  134.7   18.7   134   13.5 
2026-06-18 03:31 UT   15 28 57.9   +07 32 41     1.419    2.252  134.6   18.7   134   13.5 
2026-06-19 00:00 UT   15 28 29.2   +07 29 15     1.423    2.250  133.9   19.0   133   13.5 
2026-06-20 00:00 UT   15 27 57.1   +07 24 58     1.427    2.247  133.1   19.3   132   13.5 
2026-06-21 00:00 UT   15 27 26.6   +07 20 23     1.432    2.245  132.2   19.6   131   13.5 
2026-06-22 00:00 UT   15 26 57.8   +07 15 33     1.436    2.242  131.4   19.9   130   13.6 
2026-06-23 00:00 UT   15 26 30.5   +07 10 25     1.441    2.239  130.6   20.2   129   13.6 
2026-06-24 00:00 UT   15 26 04.9   +07 05 02     1.446    2.237  129.8   20.4   129   13.6 
2026-06-25 00:00 UT   15 25 41.0   +06 59 24     1.451    2.234  129.0   20.7   128   13.6 
2026-06-26 00:00 UT   15 25 18.8   +06 53 30     1.456    2.232  128.2   21.0   127   13.6 
2026-06-27 00:00 UT   15 24 58.3   +06 47 22     1.461    2.229  127.3   21.3   126   13.6 
2026-06-28 00:00 UT   15 24 39.5   +06 40 59     1.467    2.227  126.5   21.5   126   13.6 
2026-06-29 00:00 UT   15 24 22.5   +06 34 22     1.472    2.224  125.7   21.8   125   13.7 
2026-06-30 00:00 UT   15 24 07.2   +06 27 31     1.478    2.222  124.9   22.0   124   13.7 
2026-07-01 00:00 UT   15 23 53.6   +06 20 28     1.484    2.219  124.1   22.3   124   13.7 
2026-07-02 00:00 UT   15 23 41.9   +06 13 11     1.490    2.217  123.3   22.5   123   13.7 
2026-07-03 00:00 UT   15 23 31.8   +06 05 41     1.496    2.214  122.5   22.8   122   13.7 
2026-07-04 00:00 UT   15 23 23.6   +05 57 59     1.502    2.212  121.7   23.0   122   13.7 
2026-07-05 00:00 UT   15 23 17.1   +05 50 05     1.508    2.209  120.9   23.3   121   13.7 
2026-07-06 00:00 UT   15 23 12.4   +05 41 59     1.514    2.207  120.1   23.5   120   13.7 
2026-07-07 00:00 UT   15 23 09.5   +05 33 43     1.521    2.204  119.3   23.7   120   13.8 
2026-07-08 00:00 UT   15 23 08.4   +05 25 15     1.527    2.202  118.5   23.9   119   13.8 
2026-07-09 00:00 UT   15 23 09.0   +05 16 36     1.534    2.199  117.7   24.2   119   13.8 
2026-07-10 00:00 UT   15 23 11.4   +05 07 47     1.540    2.197  117.0   24.4   118   13.8 
2026-07-11 00:00 UT   15 23 15.6   +04 58 48     1.547    2.194  116.2   24.6   118   13.8 
2026-07-12 00:00 UT   15 23 21.6   +04 49 40     1.554    2.192  115.4   24.8   117   13.8 
2026-07-13 00:00 UT   15 23 29.4   +04 40 22     1.561    2.189  114.6   25.0   117   13.8 
2026-07-14 00:00 UT   15 23 39.0   +04 30 55     1.568    2.187  113.9   25.2   116   13.9 
2026-07-15 00:00 UT   15 23 50.3   +04 21 19     1.575    2.184  113.1   25.3   116   13.9 
2026-07-16 00:00 UT   15 24 03.4   +04 11 35     1.582    2.182  112.4   25.5   115   13.9 
2026-07-17 00:00 UT   15 24 18.2   +04 01 43     1.589    2.179  111.6   25.7   115   13.9 
2026-07-18 00:00 UT   15 24 34.8   +03 51 44     1.597    2.177  110.9   25.9   114   13.9 


    Terminology:
            
    delta:  distance between minor planet and earth in AU
    radius: distance between minor planet and sun in AU
    magn:   magnitude (brightness) estimate    
    ra:     right ascension in hours (24h = 360deg)
    dec:    declination in degrees
    elong:  elongation in degrees (angle sun-earth-minor planet)    
    phase:  phase angle in degrees (angle sun-minor planet-earth)        
    AU:     Astronomical Unit (mean distance between earth and sun: 149597870.7 km
    

Orbital elements provided by the MPC (Minor Planet Center).
Calculations by a modified version of AAPlus, a C# implementation of the AA+ project by PJ Naughter from the algorithms presented in the book "Astronomical Algorithms" by Jean Meeus.
NGC2000 dso catalog and star labels from VizieR as provided by the Strasbourg astronomical Data Center.
Tycho2 catalog from the ESO archive.